Location: Newark
(34.6283°N, 36.0776°E)
Time: 01:11:48
(UTC+00:00)

A-11 Canister half - Pass Details

Date: 24 September 2019
Orbit: 1527 x 1682 km, 47.3° (Epoch: 20 October)

Event Time Altitude Azimuth Distance (km) Brightness Sun altitude
Rises 22:26:32 0° 205° (SSW) 4,665 - -53.3°
Reaches altitude 10° 22:29:47 10° 198° (SSW) 3,683 - -53.0°
Maximum altitude 22:38:16 42° 131° (SE) 2,071 - -52.2°
Exits shadow 22:43:43 22° 76° (ENE) 2,869 10.6 -51.7°
Drops below altitude 10° 22:46:53 10° 65° (ENE) 3,741 11.4 -51.3°
Sets 22:50:10 0° 59° (ENE) 4,746 12.1 -50.9°
